Date String (YYYY-MM-DD hh:mm:ss) UTC,Instrument flags,Ambient pressure (hPa),Sample flow (lpm),Bypass flow (lpm),Sample temperature (°C),Ambient temperature (°C),ASC tube jacket temperature (°C),LED temperature (°C),Box temperature (°C),Sample RH (%),Span deviation,Mass concentration (μg/m³),Mass concentration (μg/m³),Mass concentration (μg/m³)
DateTimeUTC,F1_M11,P_M11,Q1_M11,Q2_M11,T1_M11,T2_M11,T3_M11,T4_M11,T5_M11,U1_M11,ZSPAN_M11,X0_M11,X2_M11,X1_M11
2023-03-05 18:00:00,,0814.6,5.00,0.00,22.6,21.3,00.0,31.3,24.4,08.4,0000.0,0007.74,0002.80,0001.50
2023-03-05 18:01:00,,0815.1,5.01,0.00,22.6,21.3,00.0,31.3,24.3,08.4,0000.0,0008.16,0002.77,0001.49
2023-03-05 18:02:00,,0815.0,4.99,0.00,22.6,21.3,00.0,31.3,24.2,08.5,0000.0,0008.60,0002.71,0001.49
2023-03-05 18:03:00,,0815.2,4.99,0.00,22.6,21.2,00.0,31.3,24.3,08.4,0000.0,0008.70,0002.72,0001.49
2023-03-05 18:04:00,,0814.7,5.00,0.00,22.6,21.3,00.0,31.3,24.4,08.2,0000.0,0008.66,0002.67,0001.47
2023-03-05 18:05:00,,0814.6,4.99,0.00,22.6,21.3,00.0,31.3,24.4,08.2,0000.0,0008.65,0002.61,0001.45
2023-03-05 18:06:00,,0814.8,5.01,0.00,22.6,21.3,00.0,31.3,24.4,08.3,0000.0,0008.54,0002.52,0001.45
2023-03-05 18:07:00,,0814.9,5.02,0.00,22.6,21.3,00.0,31.3,24.4,08.4,0000.0,0007.96,0002.43,0001.46
2023-03-05 18:08:00,,0814.6,4.98,0.00,22.6,21.3,00.0,31.3,24.4,08.2,0000.0,0008.05,0002.46,0001.46
2023-03-05 18:09:00,,0814.9,4.99,0.00,22.6,21.3,00.0,31.3,24.4,07.9,0000.0,0007.90,0002.47,0001.47
2023-03-05 18:10:00,,0815.0,4.98,0.00,22.6,21.3,00.0,31.3,24.4,08.0,0000.0,0007.72,0002.38,0001.46
2023-03-05 18:11:00,,0815.0,5.00,0.00,22.6,21.3,00.0,31.3,24.4,08.2,0000.0,0007.61,0002.36,0001.48
2023-03-05 18:12:00,,0814.6,5.00,0.00,20.0,21.2,00.0,29.6,21.6,08.0,0000.0,0006.86,0002.33,0001.48
2023-03-05 18:13:00,,0815.0,5.01,0.00,22.6,21.3,00.0,31.3,24.4,08.1,0000.0,0006.27,0002.36,0001.48
2023-03-05 18:14:00,,0814.8,5.00,0.00,22.6,21.3,00.0,31.3,24.4,08.0,0000.0,0005.92,0002.43,0001.49
2023-03-05 18:15:00,,0814.9,4.99,0.00,22.6,21.3,00.0,31.3,24.3,07.9,0000.0,0006.01,0002.48,0001.50
2023-03-05 18:16:00,,0814.7,5.00,0.00,22.6,21.2,00.0,31.3,24.3,08.0,0000.0,0005.92,0002.50,0001.52
2023-03-05 18:17:00,,0814.6,5.00,0.00,22.5,21.2,00.0,31.3,24.3,08.0,0000.0,0006.04,0002.58,0001.53
2023-03-05 18:18:00,,0815.1,5.01,0.00,22.5,21.2,00.0,31.3,24.3,08.2,0000.0,0006.27,0002.62,0001.54
2023-03-05 18:19:00,,0815.0,5.00,0.00,22.5,21.2,00.0,31.3,24.4,08.4,0000.0,0006.37,0002.65,0001.56
2023-03-05 18:20:00,,0814.7,5.00,0.00,22.5,21.3,00.0,31.3,24.4,08.4,0000.0,0006.59,0002.66,0001.58
2023-03-05 18:21:00,,0815.1,5.01,0.00,22.6,21.3,00.0,31.3,24.4,08.2,0000.0,0006.93,0002.73,0001.59
2023-03-05 18:22:00,,0815.0,5.00,0.00,22.5,21.3,00.0,31.3,24.3,08.0,0000.0,0007.28,0002.77,0001.59
2023-03-05 18:23:00,,0815.1,4.99,0.00,22.5,21.3,00.0,31.3,24.4,08.3,0000.0,0007.05,0002.74,0001.62
2023-03-05 18:24:00,,0814.9,5.00,0.00,22.5,21.2,00.0,31.3,24.3,08.4,0000.0,0006.31,0002.72,0001.64
2023-03-05 18:25:00,,0814.9,5.00,0.00,22.5,21.2,00.0,31.3,24.3,08.5,0000.0,0006.38,0002.74,0001.67
2023-03-05 18:26:00,,0814.9,4.99,0.00,22.5,21.2,00.0,31.3,24.3,08.6,0000.0,0007.77,0002.79,0001.69
2023-03-05 18:27:00,,0815.0,4.99,0.00,22.5,21.2,00.0,31.3,24.4,08.6,0000.0,0007.81,0002.80,0001.70
2023-03-05 18:28:00,,0814.8,4.99,0.00,22.5,21.3,00.0,31.3,24.4,08.4,0000.0,0007.82,0002.77,0001.69
2023-03-05 18:29:00,,0815.1,5.01,0.00,22.6,21.3,00.0,31.3,24.4,08.2,0000.0,0007.81,0002.79,0001.69
2023-03-05 18:30:00,,0814.9,5.01,0.00,22.6,21.3,00.0,31.3,24.4,08.5,0000.0,0007.70,0002.74,0001.68
2023-03-05 18:31:00,,0814.7,5.01,0.00,22.6,21.3,00.0,31.3,24.5,08.6,0000.0,0007.55,0002.75,0001.67
2023-03-05 18:32:00,,0814.6,5.00,0.00,22.6,21.3,00.0,31.3,24.5,08.6,0000.0,0007.50,0002.73,0001.67
2023-03-05 18:33:00,,0814.6,5.00,0.00,22.6,21.3,00.0,31.3,24.4,08.6,0000.0,0007.41,0002.73,0001.67
2023-03-05 18:34:00,,0814.4,4.99,0.00,22.6,21.3,00.0,31.3,24.4,08.8,0000.0,0007.31,0002.75,0001.65
2023-03-05 18:35:00,,0814.9,5.01,0.00,22.6,21.4,00.0,31.3,24.5,08.8,0000.0,0007.12,0002.79,0001.63
2023-03-05 18:36:00,,0814.8,5.00,0.00,22.6,21.4,00.0,31.3,24.5,08.7,0000.0,0006.97,0002.80,0001.63
2023-03-05 18:37:00,,0815.0,5.01,0.00,22.6,21.4,00.0,31.3,24.4,08.3,0000.0,0005.35,0002.80,0001.63
2023-03-05 18:38:00,,0815.0,5.00,0.00,22.6,21.4,00.0,31.3,24.5,08.3,0000.0,0005.64,0002.83,0001.63
2023-03-05 18:39:00,,0815.0,4.99,0.00,22.6,21.4,00.0,31.3,24.5,08.5,0000.0,0005.66,0002.81,0001.63
2023-03-05 18:40:00,,0814.8,5.00,0.00,22.6,21.4,00.0,31.3,24.5,08.5,0000.0,0005.37,0002.73,0001.64
2023-03-05 18:41:00,,0814.5,5.00,0.00,22.6,21.4,00.0,31.3,24.5,07.6,0000.0,0005.39,0002.74,0001.64
2023-03-05 18:42:00,,0814.8,5.00,0.00,22.6,21.4,00.0,31.3,24.5,08.0,0000.0,0005.38,0002.75,0001.64
2023-03-05 18:43:00,,0814.6,5.00,0.00,22.7,21.4,00.0,31.3,24.5,07.9,0000.0,0005.34,0002.75,0001.64
2023-03-05 18:44:00,,0814.7,5.00,0.00,22.7,21.4,00.0,31.3,24.5,07.7,0000.0,0005.51,0002.80,0001.65
2023-03-05 18:45:00,,0814.5,5.00,0.00,22.6,21.4,00.0,31.3,24.4,08.0,0000.0,0005.53,0002.82,0001.66
2023-03-05 18:46:00,,0814.7,4.99,0.00,22.6,21.4,00.0,31.3,24.5,08.1,0000.0,0006.16,0002.90,0001.67
2023-03-05 18:47:00,,0814.8,4.99,0.00,22.7,21.4,00.0,31.4,24.5,08.1,0000.0,0007.27,0002.86,0001.66
2023-03-05 18:48:00,,0814.9,5.00,0.00,22.7,21.4,00.0,31.4,24.5,07.5,0000.0,0007.33,0002.81,0001.65
2023-03-05 18:49:00,,0814.7,5.00,0.00,22.7,21.3,00.0,31.4,24.5,07.7,0000.0,0007.71,0002.74,0001.64
2023-03-05 18:50:00,,0814.6,5.01,0.00,22.7,21.3,00.0,31.4,24.5,07.7,0000.0,0007.67,0002.78,0001.65
2023-03-05 18:51:00,,0814.7,5.00,0.00,22.7,21.3,00.0,31.4,24.5,08.1,0000.0,0007.72,0002.82,0001.64
2023-03-05 18:52:00,,0814.8,4.99,0.00,22.6,21.4,00.0,31.4,24.5,07.7,0000.0,0007.73,0002.80,0001.62
2023-03-05 18:53:00,,0814.5,4.99,0.00,22.6,21.3,00.0,31.3,24.4,07.4,0000.0,0007.62,0002.74,0001.60
2023-03-05 18:54:00,,0814.6,4.99,0.00,22.6,21.3,00.0,31.3,24.5,07.8,0000.0,0007.65,0002.73,0001.60
2023-03-05 18:55:00,,0814.7,5.00,0.00,22.6,21.3,00.0,31.3,24.4,07.7,0000.0,0007.47,0002.63,0001.58
2023-03-05 18:56:00,,0814.6,5.00,0.00,22.6,21.2,00.0,31.3,24.4,07.6,0000.0,0007.45,0002.59,0001.57
2023-03-05 18:57:00,,0814.5,5.01,0.00,22.6,21.2,00.0,31.3,24.4,07.7,0000.0,0007.15,0002.52,0001.56
2023-03-05 18:58:00,,0814.8,4.99,0.00,22.6,21.2,00.0,31.3,24.4,07.8,0000.0,0005.84,0002.47,0001.55
2023-03-05 18:59:00,,0814.6,4.99,0.00,22.6,21.3,00.0,31.3,24.4,07.5,0000.0,0006.16,0002.48,0001.54
